This demonstration page uses our WeatherBlox Daily Observations layout. Learn more.

Left ArrowRight Arrow

Hourly Observations for May 19, 2021

Temp ( °F °C ) Dew Point ( °F °C ) Humidity (%) Winds ( mph kmh ) Pressure ( in mb ) Visibility ( mi km ) Precip ( " mm )
12:15 am 00:15 Clear 64 18 58 14.5 80 80 SE 7 11 30.21 1023 10 16 0.00 0.00
12:35 am 00:35 Clear 65 18.1 58 14.4 79 79 SE 9 15 30.21 1023 10 16 0.00 0.00
12:55 am 00:55 Clear 65 18.1 58 14.3 79 79 SE 8 13 30.20 1023 10 16 0.00 0.00
1:15 am 01:15 Clear 64 17.9 58 14.2 79 79 SE 8 13 30.20 1023 10 16 0.00 0.00
1:35 am 01:35 Clear 64 17.7 57 14.1 80 80 SE 8 13 30.20 1023 10 16 0.00 0.00
1:55 am 01:55 Clear 64 17.6 57 14 80 80 SSE 7 11 30.20 1023 10 16 0.00 0.00
2:15 am 02:15 Clear 63 17 57 14 83 83 SSE 7 11 30.20 1023 10 16 0.00 0.00
2:35 am 02:35 Clear 62 16.7 57 13.8 83 83 SSE 6 9 30.20 1023 10 16 0.00 0.00
2:55 am 02:55 Partly Cloudy 61 16.3 57 13.7 85 85 SSE 7 11 30.20 1023 10 16 0.00 0.00
3:15 am 03:15 Partly Cloudy 62 16.5 57 13.7 84 84 SE 7 11 30.20 1023 10 16 0.00 0.00
3:35 am 03:35 Mostly Cloudy 62 16.4 57 13.7 84 84 SSE 7 11 30.20 1023 10 16 0.00 0.00
3:55 am 03:55 Mostly Cloudy 62 16.5 57 13.7 84 84 SSE 7 11 30.20 1023 10 16 0.00 0.00
4:15 am 04:15 Cloudy 61 16.3 57 13.7 85 85 SSE 7 11 30.21 1023 10 16 0.00 0.00
4:35 am 04:35 Partly Cloudy 61 15.9 56 13.5 86 86 SE 6 9 30.21 1023 10 16 0.00 0.00
4:55 am 04:55 Clear 60 15.5 56 13.5 88 88 SE 6 9 30.22 1023 10 16 0.00 0.00
5:15 am 05:15 Clear 60 15.6 56 13.5 87 87 SE 6 9 30.22 1023 10 16 0.00 0.00
5:35 am 05:35 Clear 60 15.5 56 13.5 88 88 SE 6 9 30.22 1023 10 16 0.00 0.00
5:55 am 05:55 Clear 60 15.5 56 13.5 88 88 SE 5 7 30.23 1024 10 16 0.00 0.00
6:15 am 06:15 Clear 60 15.3 56 13.5 89 89 SE 6 9 30.23 1024 10 16 0.00 0.00
6:35 am 06:35 Sunny 60 15.3 56 13.6 90 90 SE 5 7 30.24 1024 10 16 0.00 0.00
6:55 am 06:55 Sunny 60 15.6 57 13.7 89 89 SE 5 7 30.24 1024 10 16 0.00 0.00
7:15 am 07:15 Sunny 61 16.1 57 14 87 87 SE 6 9 30.24 1024 10 16 0.00 0.00
7:35 am 07:35 Sunny 62 16.6 57 14 85 85 SE 7 11 30.25 1024 10 16 0.00 0.00
7:55 am 07:55 Sunny 63 17.2 58 14.5 84 84 SSE 6 9 30.26 1025 10 16 0.00 0.00
8:15 am 08:15 Sunny 65 18.3 58 14.6 79 79 SSE 7 11 30.25 1024 10 16 0.00 0.00
8:35 am 08:35 Partly Cloudy 67 19.5 59 15.2 76 76 SSE 8 13 30.26 1025 10 16 0.00 0.00
8:55 am 08:55 Mostly Cloudy 67 19.5 59 15 75 75 SSE 9 15 30.26 1025 10 16 0.00 0.00
9:15 am 09:15 Cloudy 67 19.3 59 15.1 77 77 S 9 15 30.26 1025 10 16 0.00 0.00
9:35 am 09:35 Cloudy 67 19.6 60 15.3 76 76 SSE 9 15 30.26 1025 10 16 0.00 0.00
9:55 am 09:55 Cloudy 69 20.4 59 15.2 72 72 S 10 17 30.26 1025 10 16 0.00 0.00
10:15 am 10:15 Cloudy 69 20.6 59 15.1 71 71 S 9 15 30.26 1025 10 16 0.00 0.00
10:35 am 10:35 Cloudy 70 21 59 15.1 69 69 S 13 20 30.26 1025 10 16 0.00 0.00
10:55 am 10:55 Cloudy 70 21 60 15.4 70 70 S 12 19 30.26 1025 10 16 0.00 0.00
11:15 am 11:15 Cloudy 70 21 60 15.6 71 71 S 14 22 30.27 1025 10 16 0.00 0.00
11:35 am 11:35 Cloudy 69 20.7 60 15.6 73 73 S 9 15 30.27 1025 10 16 0.00 0.00
11:55 am 11:55 Cloudy 70 20.9 60 15.7 72 72 S 13 20 30.27 1025 10 16 0.00 0.00
12:15 pm 12:15 Cloudy 71 21.5 60 15.8 70 70 S 12 19 30.27 1025 10 16 0.00 0.00
12:35 pm 12:35 Cloudy 72 22.1 61 16.3 70 70 S 10 17 30.27 1025 10 16 0.00 0.00
12:55 pm 12:55 Cloudy 74 23.2 62 16.7 67 67 SSW 12 19 30.27 1025 10 16 0.00 0.00
1:15 pm 13:15 Cloudy 73 23 62 16.5 67 67 SSW 13 20 30.27 1025 10 16 0.00 0.00
1:35 pm 13:35 Cloudy 74 23.2 62 16.8 67 67 SW 9 15 30.27 1025 10 16 0.00 0.00
1:55 pm 13:55 Cloudy 75 23.7 63 17 66 66 SSW 14 22 30.26 1025 10 16 0.00 0.00
2:15 pm 14:15 Cloudy 74 23.2 62 16.5 66 66 SW 12 19 30.27 1025 10 16 0.00 0.00
2:35 pm 14:35 Cloudy 73 22.8 61 16.3 67 67 WSW 10 17 30.27 1025 10 16 0.00 0.00
2:55 pm 14:55 Cloudy 73 22.6 61 16.2 67 67 WSW 7 11 30.26 1025 10 16 0.00 0.00
3:15 pm 15:15 Cloudy 73 22.9 62 16.5 67 67 SW 6 9 30.26 1025 10 16 0.00 0.00
3:35 pm 15:35 Mostly Cloudy 74 23.5 61 16 63 63 WSW 9 15 30.25 1025 10 16 0.00 0.00
3:55 pm 15:55 Mostly Cloudy 75 23.7 60 15.4 60 60 S 7 11 30.24 1024 10 16 0.00 0.00
4:15 pm 16:15 Partly Cloudy 75 23.7 59 15.1 59 59 SSW 5 7 30.24 1024 10 16 0.00 0.00
4:35 pm 16:35 Partly Cloudy 75 24.1 60 15.8 60 60 SE 6 9 30.23 1024 10 16 0.00 0.00
4:55 pm 16:55 Mostly Cloudy 76 24.5 59 15 56 56 SSE 7 11 30.23 1024 10 16 0.00 0.00
5:15 pm 17:15 Cloudy 77 25 58 14.4 52 52 SSE 7 11 30.22 1023 10 16 0.00 0.00
5:35 pm 17:35 Cloudy 76 24.6 58 14.3 53 53 Calm 30.22 1023 10 16 0.00 0.00
5:55 pm 17:55 Cloudy 77 25 58 14.5 52 52 S 6 9 30.22 1023 10 16 0.00 0.00
6:15 pm 18:15 Partly Cloudy 77 25.2 57 14 50 50 SSE 6 9 30.22 1023 10 16 0.00 0.00
6:35 pm 18:35 Partly Cloudy 77 25.1 58 14.2 51 51 S 6 9 30.22 1023 10 16 0.00 0.00
6:55 pm 18:55 Sunny 77 25.2 58 14.5 52 52 S 7 11 30.22 1023 10 16 0.00 0.00
7:15 pm 19:15 Mostly Cloudy 77 25 58 14.7 53 53 SE 9 15 30.21 1023 10 16 0.00 0.00
7:35 pm 19:35 Cloudy 76 24.5 59 14.9 55 55 SSE 5 7 30.21 1023 10 16 0.00 0.00
7:55 pm 19:55 Cloudy 76 24.4 60 15.4 57 57 SE 3 6 30.21 1023 10 16 0.00 0.00
8:15 pm 20:15 Mostly Cloudy 74 23.6 61 15.9 62 62 SE 5 7 30.21 1023 10 16 0.00 0.00
8:35 pm 20:35 Partly Cloudy 73 23 60 15.7 64 64 SE 5 7 30.22 1023 10 16 0.00 0.00
8:55 pm 20:55 Sunny 72 22 60 15.8 68 68 SE 3 6 30.22 1023 10 16 0.00 0.00
9:15 pm 21:15 Clear 70 21.2 61 16 72 72 SE 5 7 30.22 1023 10 16 0.00 0.00
9:35 pm 21:35 Clear 69 20.8 60 15.8 73 73 SE 5 7 30.22 1023 10 16 0.00 0.00
9:55 pm 21:55 Clear 69 20.7 60 15.4 72 72 SE 5 7 30.23 1024 10 16 0.00 0.00
10:15 pm 22:15 Clear 69 20.4 60 15.5 74 74 Calm 30.23 1024 10 16 0.00 0.00
10:35 pm 22:35 Clear 67 19.7 61 15.9 79 79 Calm 30.24 1024 10 16 0.00 0.00
10:55 pm 22:55 Clear 68 19.9 60 15.8 77 77 ESE 3 6 30.24 1024 10 16 0.00 0.00
11:15 pm 23:15 Clear 67 19.5 60 15.8 79 79 E 5 7 30.24 1024 10 16 0.00 0.00
11:35 pm 23:35 Clear 67 19.5 60 15.7 79 79 E 5 7 30.25 1024 10 16 0.00 0.00
11:55 pm 23:55 Clear 67 19.5 60 15.8 79 79 ESE 5 7 30.25 1024 10 16 0.00 0.00

Powered by AerisWeather